| time (UTC) | temp F | wind direction | speed knots | gust knots | rain 1hr in | rain 24hr in | rain mn in | humidity % | barometer mb |
| 20260506050845 | 50 | 0 | 0.0 | 6.1 | 0.07 | 0.67 | 0.08 | 96 | 1014.7 |
| 20260506044845 | 50 | 5 | 3.5 | 5.2 | 0.09 | 0.66 | 0.07 | 96 | 1015.0 |
| 20260506043845 | 50 | 12 | 2.6 | 4.3 | 0.09 | 0.65 | 0.06 | 96 | 1014.9 |
| 20260506042844 | 51 | 359 | 2.6 | 5.2 | 0.07 | 0.63 | 0.03 | 96 | 1015.0 |
| 20260506041845 | 50 | 357 | 4.3 | 0.9 | 0.09 | 0.62 | 0.03 | 96 | 1015.1 |
| 20260506040845 | 50 | 7 | 3.5 | 3.5 | 0.10 | 0.60 | 0.00 | 96 | 1015.3 |
| 20260506035845 | 51 | 0 | 0.0 | 0.0 | 0.10 | 0.59 | 0.59 | 96 | 1015.2 |
| 20260506034845 | 51 | 14 | 1.7 | 3.5 | 0.09 | 0.57 | 0.57 | 96 | 1015.3 |
| 20260506033845 | 51 | 0 | 0.0 | 5.2 | 0.10 | 0.56 | 0.56 | 96 | 1015.6 |
| 20260506032844 | 51 | 0 | 0.0 | 0.0 | 0.10 | 0.55 | 0.55 | 96 | 1016.1 |
| 20260506031845 | 51 | 237 | 0.9 | 0.0 | 0.10 | 0.53 | 0.53 | 96 | 1015.6 |
| 20260506025845 | 51 | 355 | 1.7 | 4.3 | 0.10 | 0.48 | 0.48 | 96 | 1015.0 |
| 20260506024844 | 51 | 335 | 1.7 | 2.6 | 0.10 | 0.47 | 0.47 | 96 | 1015.0 |
| 20260506023845 | 51 | 0 | 0.0 | 4.3 | 0.09 | 0.46 | 0.46 | 96 | 1014.9 |
| 20260506022847 | 51 | 16 | 2.6 | 5.2 | 0.10 | 0.45 | 0.45 | 96 | 1015.0 |
| 20260506021845 | 51 | 39 | 1.7 | 4.3 | 0.10 | 0.42 | 0.42 | 96 | 1014.8 |
| 20260506020844 | 51 | 11 | 5.2 | 4.3 | 0.09 | 0.40 | 0.40 | 96 | 1014.7 |
| 20260506015845 | 51 | 347 | 1.7 | 4.3 | 0.07 | 0.38 | 0.38 | 96 | 1014.9 |
| 20260506014844 | 51 | 351 | 0.9 | 3.5 | 0.07 | 0.37 | 0.37 | 96 | 1014.7 |
| 20260506013845 | 51 | 0 | 0.0 | 4.3 | 0.09 | 0.36 | 0.36 | 96 | 1014.6 |
| 20260506012845 | 51 | 4 | 1.7 | 4.3 | 0.10 | 0.35 | 0.35 | 96 | 1014.3 |
| 20260506011845 | 51 | 359 | 2.6 | 4.3 | 0.10 | 0.32 | 0.32 | 96 | 1014.3 |
| 20260506010844 | 51 | 18 | 4.3 | 6.1 | 0.11 | 0.31 | 0.31 | 96 | 1014.6 |
| 20260506005845 | 52 | 351 | 2.6 | 6.1 | 0.20 | 0.30 | 0.30 | 96 | 1014.9 |
| 20260506004844 | 52 | 0 | 3.5 | 9.6 | 0.27 | 0.30 | 0.30 | 96 | 1015.4 |
| 20260506004004 | 52 | 15 | 3.5 | 5.2 | 0.25 | 0.27 | 0.27 | 96 | 1015.8 |
| 20260506003845 | 52 | 15 | 3.5 | 5.2 | 0.25 | 0.27 | 0.27 | 96 | 1015.8 |
| 20260506002844 | 53 | 9 | 5.2 | 4.3 | 0.21 | 0.24 | 0.24 | 95 | 1016.0 |
| 20260506001845 | 53 | 351 | 3.5 | 4.3 | 0.18 | 0.21 | 0.21 | 95 | 1015.8 |
| 20260506000848 | 53 | 14 | 1.7 | 9.6 | 0.17 | 0.19 | 0.19 | 95 | 1016.0 |
| 20260506000027 | 54 | 1 | 7.8 | 14.8 | 0.07 | 0.10 | 0.10 | 95 | 1016.1 |
| 20260505235845 | 54 | 1 | 7.8 | 14.8 | 0.07 | 0.10 | 0.10 | 95 | 1016.1 |
| 20260505234845 | 55 | 359 | 2.6 | 14.8 | 0.01 | 0.03 | 0.03 | 92 | 1015.9 |
| 20260505233847 | 57 | 343 | 8.7 | 9.6 | 0.00 | 0.02 | 0.02 | 92 | 1015.7 |
| 20260505231845 | 58 | 352 | 5.2 | 5.2 | 0.00 | 0.02 | 0.02 | 92 | 1015.8 |
| 20260505230845 | 59 | 341 | 4.3 | 7.0 | 0.00 | 0.02 | 0.02 | 91 | 1015.8 |
| 20260505225845 | 59 | 319 | 1.7 | 6.1 | 0.00 | 0.02 | 0.02 | 90 | 1015.9 |
| 20260505224844 | 59 | 26 | 4.3 | 6.1 | 0.00 | 0.01 | 0.01 | 90 | 1016.2 |
| 20260505224001 | 59 | 2 | 2.6 | 5.2 | 0.00 | 0.01 | 0.01 | 89 | 1016.6 |
| 20260505223845 | 59 | 2 | 2.6 | 5.2 | 0.00 | 0.01 | 0.01 | 89 | 1016.6 |
| 20260505222844 | 59 | 350 | 1.7 | 6.1 | 0.00 | 0.01 | 0.01 | 89 | 1016.8 |
| 20260505221845 | 60 | 9 | 3.5 | 5.2 | 0.00 | 0.01 | 0.01 | 88 | 1016.9 |
| 20260505220844 | 60 | 0 | 0.0 | 8.7 | 0.00 | 0.01 | 0.01 | 88 | 1017.1 |
| 20260505215845 | 61 | 337 | 8.7 | 7.8 | 0.00 | 0.01 | 0.01 | 88 | 1017.3 |
| 20260505214844 | 61 | 348 | 4.3 | 6.1 | 0.00 | 0.01 | 0.01 | 87 | 1016.8 |
| 20260505213845 | 62 | 0 | 0.0 | 5.2 | 0.00 | 0.01 | 0.01 | 86 | 1016.7 |
| 20260505212844 | 62 | 355 | 3.5 | 6.1 | 0.00 | 0.01 | 0.01 | 84 | 1016.9 |
| 20260505211845 | 63 | 359 | 3.5 | 0.9 | 0.00 | 0.01 | 0.01 | 83 | 1017.1 |
| 20260505210845 | 64 | 276 | 0.9 | 3.5 | 0.00 | 0.01 | 0.01 | 79 | 1017.2 |
| 20260505210123 | 64 | 0 | 0.0 | 4.3 | 0.00 | 0.01 | 0.01 | 78 | 1017.1 |
| 20260505205845 | 64 | 0 | 0.0 | 4.3 | 0.00 | 0.01 | 0.01 | 78 | 1017.1 |
| 20260505204844 | 64 | 324 | 2.6 | 6.1 | 0.00 | 0.01 | 0.01 | 76 | 1016.7 |
| 20260505203845 | 65 | 18 | 1.7 | 4.3 | 0.00 | 0.01 | 0.01 | 74 | 1016.6 |
| 20260505202844 | 66 | 347 | 1.7 | 1.7 | 0.00 | 0.01 | 0.01 | 72 | 1016.6 |
| 20260505200849 | 66 | 247 | 0.0 | 5.2 | 0.00 | 0.01 | 0.01 | 69 | 1016.8 |
| 20260505195845 | 66 | 338 | 0.9 | 0.9 | 0.00 | 0.01 | 0.01 | 70 | 1016.7 |
| 20260505194844 | 66 | 279 | 0.9 | 3.5 | 0.00 | 0.01 | 0.01 | 70 | 1016.7 |
| 20260505193845 | 65 | 203 | 0.0 | 0.9 | 0.00 | 0.01 | 0.01 | 71 | 1016.8 |
| 20260505192844 | 65 | 0 | 0.0 | 0.9 | 0.00 | 0.01 | 0.01 | 72 | 1016.9 |
| 20260505191847 | 66 | 208 | 0.0 | 7.0 | 0.00 | 0.01 | 0.01 | 70 | 1017.1 |
| 20260505190844 | 67 | 217 | 2.6 | 6.1 | 0.00 | 0.01 | 0.01 | 65 | 1017.1 |
| 20260505185845 | 68 | 0 | 0.0 | 7.8 | 0.00 | 0.01 | 0.01 | 63 | 1016.9 |
| 20260505184844 | 68 | 182 | 1.7 | 6.1 | 0.00 | 0.01 | 0.01 | 62 | 1016.8 |
| 20260505183844 | 68 | 282 | 0.9 | 3.5 | 0.00 | 0.01 | 0.01 | 61 | 1016.7 |
| 20260505182844 | 68 | 204 | 1.7 | 7.8 | 0.00 | 0.01 | 0.01 | 60 | 1016.6 |
| 20260505181845 | 68 | 0 | 0.0 | 7.0 | 0.00 | 0.01 | 0.01 | 62 | 1016.4 |
| 20260505180844 | 68 | 214 | 3.5 | 9.6 | 0.00 | 0.01 | 0.01 | 62 | 1016.3 |
| 20260505175845 | 69 | 200 | 0.9 | 6.1 | 0.00 | 0.01 | 0.01 | 62 | 1016.1 |
| 20260505174844 | 68 | 213 | 5.2 | 7.0 | 0.00 | 0.01 | 0.01 | 63 | 1016.0 |
| 20260505173845 | 69 | 200 | 2.6 | 7.8 | 0.00 | 0.01 | 0.01 | 61 | 1016.0 |
| 20260505172845 | 69 | 196 | 2.6 | 11.3 | 0.00 | 0.01 | 0.01 | 61 | 1016.1 |
| 20260505171845 | 69 | 204 | 6.1 | 6.1 | 0.00 | 0.01 | 0.01 | 61 | 1016.1 |
| 20260505170844 | 69 | 278 | 4.3 | 6.1 | 0.00 | 0.01 | 0.01 | 58 | 1016.2 |
| 20260505165845 | 70 | 204 | 1.7 | 7.8 | 0.00 | 0.01 | 0.01 | 57 | 1016.2 |
| 20260505164844 | 71 | 266 | 6.1 | 8.7 | 0.00 | 0.01 | 0.01 | 55 | 1016.2 |
| 20260505163845 | 72 | 165 | 0.9 | 10.4 | 0.00 | 0.01 | 0.01 | 57 | 1016.2 |
| 20260505162845 | 72 | 247 | 3.5 | 13.0 | 0.00 | 0.01 | 0.01 | 55 | 1016.1 |
| 20260505161845 | 71 | 235 | 1.7 | 10.4 | 0.00 | 0.01 | 0.01 | 55 | 1016.0 |
| 20260505160844 | 70 | 187 | 2.6 | 13.0 | 0.00 | 0.01 | 0.01 | 56 | 1016.0 |
| 20260505152845 | 68 | 207 | 3.5 | 8.7 | 0.00 | 0.01 | 0.01 | 60 | 1016.4 |
| 20260505151845 | 68 | 203 | 4.3 | 11.3 | 0.00 | 0.01 | 0.01 | 62 | 1016.1 |
| 20260505150844 | 68 | 199 | 9.6 | 16.5 | 0.00 | 0.01 | 0.01 | 61 | 1016.2 |
| 20260505124844 | 61 | 215 | 2.6 | 7.8 | 0.01 | 0.01 | 0.01 | 78 | 1015.4 |
| 20260505123845 | 61 | 210 | 3.5 | 7.8 | 0.00 | 0.00 | 0.00 | 78 | 1014.9 |
| 20260505122844 | 62 | 182 | 6.1 | 9.6 | 0.00 | 0.00 | 0.00 | 77 | 1014.8 |
| 20260505121845 | 62 | 199 | 4.3 | 11.3 | 0.00 | 0.00 | 0.00 | 74 | 1014.7 |
| 20260505120844 | 64 | 194 | 6.1 | 12.2 | 0.00 | 0.00 | 0.00 | 70 | 1014.7 |
| 20260505115845 | 64 | 220 | 3.5 | 7.8 | 0.00 | 0.00 | 0.00 | 69 | 1014.5 |
| 20260505114844 | 64 | 196 | 3.5 | 8.7 | 0.00 | 0.00 | 0.00 | 67 | 1014.3 |
| 20260505113845 | 64 | 196 | 4.3 | 12.2 | 0.00 | 0.00 | 0.00 | 67 | 1014.3 |
| 20260505112844 | 64 | 162 | 2.6 | 8.7 | 0.00 | 0.00 | 0.00 | 67 | 1014.0 |
| 20260505111845 | 64 | 184 | 4.3 | 8.7 | 0.00 | 0.00 | 0.00 | 67 | 1013.8 |
| 20260505110844 | 64 | 224 | 2.6 | 9.6 | 0.00 | 0.00 | 0.00 | 67 | 1013.6 |
| 20260505101845 | 64 | 214 | 7.0 | 10.4 | 0.00 | 0.00 | 0.00 | 66 | 1013.1 |
| 20260505100844 | 64 | 196 | 5.2 | 13.0 | 0.00 | 0.00 | 0.00 | 66 | 1013.0 |
| 20260505095845 | 64 | 196 | 2.6 | 10.4 | 0.00 | 0.00 | 0.00 | 66 | 1012.9 |
| 20260505094846 | 64 | 160 | 2.6 | 7.8 | 0.00 | 0.00 | 0.00 | 67 | 1012.7 |
| 20260505093845 | 64 | 193 | 4.3 | 9.6 | 0.00 | 0.00 | 0.00 | 66 | 1012.8 |
| 20260505092846 | 64 | 200 | 5.2 | 7.8 | 0.00 | 0.00 | 0.00 | 66 | 1012.8 |
| 20260505091845 | 64 | 179 | 2.6 | 10.4 | 0.00 | 0.00 | 0.00 | 65 | 1012.8 |
| 20260505090844 | 65 | 187 | 6.1 | 12.2 | 0.00 | 0.00 | 0.00 | 64 | 1012.7 |
| 20260505085845 | 65 | 187 | 3.5 | 13.0 | 0.00 | 0.00 | 0.00 | 63 | 1012.7 |
| 20260505084844 | 65 | 197 | 6.1 | 10.4 | 0.00 | 0.00 | 0.00 | 64 | 1012.7 |
| 20260505083845 | 65 | 201 | 3.5 | 11.3 | 0.00 | 0.00 | 0.00 | 64 | 1012.8 |
| 20260505082845 | 65 | 242 | 4.3 | 7.8 | 0.00 | 0.00 | 0.00 | 64 | 1012.5 |
| 20260505081845 | 65 | 196 | 3.5 | 9.6 | 0.00 | 0.00 | 0.00 | 65 | 1012.4 |
| 20260505080844 | 65 | 200 | 4.3 | 10.4 | 0.00 | 0.00 | 0.00 | 66 | 1012.4 |
| 20260505075845 | 64 | 193 | 3.5 | 7.0 | 0.00 | 0.00 | 0.00 | 67 | 1012.3 |
| 20260505074844 | 64 | 200 | 2.6 | 8.7 | 0.00 | 0.00 | 0.00 | 67 | 1012.4 |
| 20260505073845 | 64 | 196 | 2.6 | 8.7 | 0.00 | 0.00 | 0.00 | 67 | 1012.2 |
| 20260505072844 | 64 | 213 | 3.5 | 10.4 | 0.00 | 0.00 | 0.00 | 67 | 1012.2 |
| 20260505071845 | 64 | 201 | 2.6 | 10.4 | 0.00 | 0.00 | 0.00 | 66 | 1012.2 |
| 20260505070844 | 64 | 194 | 3.5 | 8.7 | 0.00 | 0.00 | 0.00 | 67 | 1012.2 |
| 20260505065844 | 64 | 184 | 5.2 | 7.8 | 0.00 | 0.00 | 0.00 | 67 | 1012.3 |
| 20260505064844 | 64 | 176 | 4.3 | 7.8 | 0.00 | 0.00 | 0.00 | 67 | 1012.4 |
| 20260505063844 | 65 | 201 | 4.3 | 9.6 | 0.00 | 0.00 | 0.00 | 66 | 1012.4 |
| 20260505062844 | 64 | 183 | 4.3 | 8.7 | 0.00 | 0.00 | 0.00 | 66 | 1012.6 |
| 20260505061845 | 65 | 239 | 3.5 | 13.9 | 0.00 | 0.00 | 0.00 | 66 | 1012.7 |
| 20260505060844 | 64 | 179 | 4.3 | 8.7 | 0.00 | 0.00 | 0.00 | 66 | 1012.8 |
| 20260505055845 | 64 | 186 | 3.5 | 8.7 | 0.00 | 0.00 | 0.00 | 68 | 1013.0 |